Regional Weather Roundup
Issued by NWS

Home | Current Version | Previous Version | Graphics & Text | Print | Product List | Glossary On
Versions: 1 2 3 4 5 6 7 8 9 10 11 12 13 14 15 16 17 18 19 20 21 22 23 24 25 26 27 28 29 30 31 32 33 34 35 36 37 38 39 40 41 42 43 44 45 46 47 48 49 50
000
ASUS43 KIND 240459
RWRIN

WEATHER ROUNDUP FOR INDIANA
NATIONAL WEATHER SERVICE INDIANAPOLIS IN
1200 AM EST FRI FEB 24 2017

NOTE: "FAIR" INDICATES FEW OR NO CLOUDS BELOW 12,000 FEET WITH NO
SIGNIFICANT WEATHER AND/OR OBSTRUCTIONS TO VISIBILITY.

* - STATION DOES NOT REPORT WEATHER SUCH AS PRECIPITATION OR FOG.

+ - STATION NOT QUALITY CONTROLLED BY THE NATIONAL WEATHER SERVICE.
    USE DATA WITH CAUTION...ESPECIALLY DEWPOINT AND RELATIVE
    HUMIDITY OBSERVATIONS.

INZ001>003-010>013-019-020-240600-
NORTHWEST INDIANA

CITY           SKY/WX    TMP DP  RH WIND       PRES   REMARKS
KNOX *+        MOCLDY    43  36  75 E5        29.67F
MICHIGAN CITY+ CLOUDY    41  41 100 CALM      29.68F FOG
RENSSELAER +   MOCLDY    43  43 100 E10       29.65F

$$

LMZ046-743>745-240600-
SOUTHERN LAKE MICHIGAN

STATION/POSITION TIME  TEMP    WIND        PRES    WAVE
                       AIR SEA DIR/SP/G            HT
                 (UTC) (F)     (DEG/KT/KT) (MB)    (FT)
BURNS HARBOR     0440   37      60/  4/  8 1006.1F
MICHIGAN CITY    0430   38      60/  6/  7   N/A

$$

INZ004-005-014>016-021>024-240600-
NORTH CENTRAL INDIANA

CITY           SKY/WX    TMP DP  RH WIND       PRES   REMARKS
GOSHEN         LGT RAIN  51  46  83 E8        29.70F
SOUTH BEND     CLOUDY    48  46  93 E15       29.69F

$$

INZ006>009-017-018-025>027-240600-
NORTHEAST INDIANA

CITY           SKY/WX    TMP DP  RH WIND       PRES   REMARKS
ANGOLA *+      CLOUDY    50  48  93 E13       29.72F
FORT WAYNE     CLOUDY    54  50  86 E7        29.70F
KENDALLVILLE + CLOUDY    52  46  81 E9        29.71F HAZE

$$

INZ028-029-035-036-043>045-051>053-240600-
WEST CENTRAL INDIANA

CITY           SKY/WX    TMP DP  RH WIND       PRES   REMARKS
LAFAYETTE      MOCLDY    54  52  93 E7        29.64F
TERRE HAUTE    CLOUDY    60  53  77 SE9       29.64F

$$

INZ030>032-037>040-046>048-054>057-064-065-240600-
CENTRAL INDIANA

CITY           SKY/WX    TMP DP  RH WIND       PRES   REMARKS
GREENWOOD *+   PTCLDY    59  56  88 S8        29.68F
INDIANAPOLIS   MOCLDY    61  55  81 SE15      29.66F
-EAGLE CREEK   MOCLDY    61  54  77 S8        29.66F
KOKOMO +       CLOUDY    57  54  89 SE8       29.69S
MT COMFORT *+  MOCLDY    59  54  82 S8        29.69S
SHELBYVILLE    PTCLDY    61  54  77 SE13      29.68F

$$

INZ033-034-041-042-049-050-058-059-240600-
EAST CENTRAL INDIANA

CITY           SKY/WX    TMP DP  RH WIND       PRES   REMARKS
MUNCIE         PTCLDY    61  54  77 S6        29.69F

$$

INZ060-061-067>069-081>083-085>088-240600-
SOUTHWEST INDIANA

CITY           SKY/WX    TMP DP  RH WIND       PRES   REMARKS
EVANSVILLE     CLOUDY    63  54  72 SE5       29.66S
HUNTINGBURG *+ CLOUDY    64  55  72 S8        29.67F

$$

INZ062-063-066-070>080-084-089>092-240600-
SOUTH CENTRAL AND SOUTHEAST INDIANA

CITY           SKY/WX    TMP DP  RH WIND       PRES   REMARKS
BLOOMINGTON    PTCLDY    61  53  75 S7        29.67F
MADISON *+     CLOUDY    63  54  72 SE5       29.73F
SEYMOUR +      MOCLDY    61  55  82 SE6       29.70S

$$




USA.gov is the U.S. government's official web portal to all federal, state and local government web resources and services.